When you browse on this site, cookies collect data to enhance your experience and personalize the content and advertising you see.
Visit our Privacy Policy to learn more. By continuing to use the site, you agree to this use of cookies and data.
  • In Portugal
  • List of Countries
  • For 7 days
  • Water Temperature
  • Satellite Maps
  • Weather Map
  • Weather Widgets
  • user-avatar
    Login

    Hourly Weather Perth

    Today, 19 December, Wednesday

    Time Temperature Precipitation Wind Pressure Humidity
    00:00 +20°C° 0 mm 4 mps 762 mmHg 57%
    01:00 +20°C° 0 mm 4 mps 762 mmHg 58%
    02:00 +20°C° 0 mm 4 mps 761 mmHg 61%
    03:00 +19°C° 0 mm 4 mps 762 mmHg 64%
    04:00 +19°C° 0 mm 4 mps 762 mmHg 66%
    05:00 +18°C° 0 mm 4 mps 762 mmHg 68%
    06:00 +19°C° 0 mm 4 mps 762 mmHg 63%
    07:00 +21°C° 0 mm 4 mps 763 mmHg 57%
    08:00 +22°C° 0 mm 4 mps 763 mmHg 52%
    09:00 +25°C° 0 mm 4 mps 763 mmHg 45%
    10:00 +28°C° 0 mm 3 mps 762 mmHg 37%
    11:00 +30°C° 0 mm 3 mps 762 mmHg 30%
    12:00 +32°C° 0 mm 4 mps 762 mmHg 28%
    13:00 +32°C° 0 mm 4 mps 761 mmHg 27%
    14:00 +33°C° 0 mm 5 mps 761 mmHg 26%
    15:00 +32°C° 0 mm 5 mps 761 mmHg 28%
    16:00 +32°C° 0 mm 6 mps 761 mmHg 29%
    17:00 +30°C° 0 mm 6 mps 760 mmHg 31%
    18:00 +28°C° 0 mm 6 mps 761 mmHg 37%
    19:00 +26°C° 0 mm 6 mps 761 mmHg 42%
    20:00 +23°C° 0 mm 6 mps 761 mmHg 48%
    21:00 +22°C° 0 mm 5 mps 761 mmHg 49%
    22:00 +22°C° 0 mm 5 mps 762 mmHg 49%
    23:00 +21°C° 0 mm 5 mps 762 mmHg 50%

    Tomorrow, 20 December, Thursday

    Time Temperature Precipitation Wind Pressure Humidity
    00:00 +21°C° 0 mm 5 mps 762 mmHg 48%
    01:00 +21°C° 0 mm 5 mps 762 mmHg 46%
    02:00 +21°C° 0 mm 5 mps 761 mmHg 45%
    03:00 +21°C° 0 mm 5 mps 761 mmHg 48%
    04:00 +20°C° 0 mm 5 mps 761 mmHg 51%
    05:00 +20°C° 0 mm 5 mps 761 mmHg 53%
    06:00 +21°C° 0 mm 5 mps 762 mmHg 50%
    07:00 +23°C° 0 mm 5 mps 762 mmHg 47%
    08:00 +25°C° 0 mm 5 mps 762 mmHg 44%
    09:00 +28°C° 0 mm 4 mps 762 mmHg 38%
    10:00 +30°C° 0 mm 4 mps 762 mmHg 32%
    11:00 +34°C° 0 mm 4 mps 761 mmHg 25%
    12:00 +35°C° 0 mm 4 mps 761 mmHg 23%
    13:00 +36°C° 0 mm 4 mps 760 mmHg 21%
    14:00 +37°C° 0 mm 4 mps 760 mmHg 19%
    15:00 +37°C° 0 mm 5 mps 759 mmHg 19%
    16:00 +36°C° 0 mm 5 mps 759 mmHg 20%
    17:00 +35°C° 0 mm 6 mps 759 mmHg 21%
    18:00 +34°C° 0 mm 5 mps 759 mmHg 23%
    19:00 +32°C° 0 mm 5 mps 759 mmHg 26%
    20:00 +29°C° 0 mm 5 mps 759 mmHg 28%
    21:00 +28°C° 0 mm 6 mps 760 mmHg 30%
    22:00 +28°C° 0 mm 7 mps 760 mmHg 32%
    23:00 +27°C° 0 mm 8 mps 760 mmHg 34%

    Day after tomorrow, 21 December, Friday

    Time Temperature Precipitation Wind Pressure Humidity
    00:00 +26°C° 0 mm 8 mps 760 mmHg 39%
    01:00 +24°C° 0 mm 8 mps 760 mmHg 43%
    02:00 +22°C° 0 mm 8 mps 760 mmHg 48%
    03:00 +22°C° 0 mm 7 mps 760 mmHg 48%
    04:00 +22°C° 0 mm 7 mps 760 mmHg 48%
    05:00 +21°C° 0 mm 7 mps 760 mmHg 48%
    06:00 +23°C° 0 mm 7 mps 761 mmHg 44%
    07:00 +24°C° 0 mm 6 mps 761 mmHg 41%
    08:00 +27°C° 0 mm 6 mps 761 mmHg 38%
    09:00 +30°C° 0 mm 5 mps 761 mmHg 32%
    10:00 +34°C° 0 mm 5 mps 761 mmHg 27%
    11:00 +36°C° 0 mm 4 mps 760 mmHg 21%
    12:00 +38°C° 0 mm 4 mps 760 mmHg 19%
    13:00 +40°C° 0 mm 4 mps 759 mmHg 17%
    14:00 +42°C° 0 mm 3 mps 758 mmHg 15%
    15:00 +40°C° 0 mm 3 mps 758 mmHg 16%
    16:00 +41°C° 0 mm 4 mps 757 mmHg 16%
    17:00 +41°C° 0 mm 4 mps 757 mmHg 16%
    18:00 +38°C° 0 mm 4 mps 757 mmHg 18%
    19:00 +36°C° 0 mm 4 mps 757 mmHg 19%
    20:00 +34°C° 0 mm 4 mps 758 mmHg 21%
    21:00 +33°C° 0 mm 4 mps 758 mmHg 21%
    22:00 +33°C° 0 mm 4 mps 758 mmHg 21%
    23:00 +33°C° 0 mm 4 mps 758 mmHg 21%

    22 December, Saturday

    Time Temperature Precipitation Wind Pressure Humidity
    00:00 +32°C° 0 mm 4 mps 758 mmHg 21%
    01:00 +32°C° 0 mm 4 mps 758 mmHg 21%
    02:00 +32°C° 0 mm 5 mps 758 mmHg 21%
    03:00 +30°C° 0 mm 5 mps 758 mmHg 21%
    04:00 +30°C° 0 mm 5 mps 758 mmHg 21%
    05:00 +30°C° 0 mm 5 mps 758 mmHg 22%
    06:00 +32°C° 0 mm 6 mps 758 mmHg 21%
    07:00 +33°C° 0 mm 6 mps 759 mmHg 20%
    08:00 +34°C° 0 mm 7 mps 759 mmHg 19%
    09:00 +36°C° 0 mm 6 mps 759 mmHg 18%
    10:00 +39°C° 0 mm 5 mps 758 mmHg 17%
    11:00 +41°C° 0 mm 5 mps 758 mmHg 16%
    12:00 +41°C° 0 mm 5 mps 758 mmHg 17%
    13:00 +41°C° 0 mm 4 mps 757 mmHg 17%
    14:00 +41°C° 0 mm 4 mps 757 mmHg 17%
    15:00 +40°C° 0 mm 4 mps 757 mmHg 21%
    16:00 +38°C° 0 mm 4 mps 756 mmHg 24%
    17:00 +37°C° 0 mm 4 mps 756 mmHg 27%
    18:00 +35°C° 0 mm 4 mps 757 mmHg 31%
    19:00 +33°C° 0 mm 3 mps 757 mmHg 35%
    20:00 +30°C° 0 mm 3 mps 758 mmHg 38%
    21:00 +29°C° 0 mm 2 mps 758 mmHg 40%
    22:00 +28°C° 0 mm 2 mps 758 mmHg 41%
    23:00 +28°C° 0 mm 1 mps 758 mmHg 42%

    23 December, Sunday

    Time Temperature Precipitation Wind Pressure Humidity
    00:00 +27°C° 0 mm 1 mps 758 mmHg 42%
    01:00 +27°C° 0 mm 1 mps 757 mmHg 42%
    02:00 +27°C° 0 mm 1 mps 757 mmHg 42%
    03:00 +26°C° 0 mm 1 mps 757 mmHg 43%
    04:00 +26°C° 0 mm 1 mps 757 mmHg 44%
    05:00 +23°C° 0 mm 0 mps 757 mmHg 45%
    06:00 +28°C° 0 mm 1 mps 757 mmHg 40%
    07:00 +31°C° 0 mm 1 mps 758 mmHg 35%
    08:00 +34°C° 0 mm 2 mps 758 mmHg 29%
    09:00 +36°C° 0 mm 2 mps 758 mmHg 27%
    10:00 +38°C° 0 mm 3 mps 757 mmHg 24%
    11:00 +39°C° 0 mm 3 mps 757 mmHg 21%
    12:00 +40°C° 0 mm 4 mps 756 mmHg 21%
    13:00 +40°C° 0 mm 5 mps 756 mmHg 21%
    14:00 +40°C° 0 mm 5 mps 755 mmHg 22%
    15:00 +39°C° 0 mm 6 mps 755 mmHg 24%
    16:00 +38°C° 0 mm 6 mps 755 mmHg 26%
    17:00 +36°C° 0 mm 6 mps 755 mmHg 29%
    18:00 +34°C° 0 mm 5 mps 756 mmHg 34%
    19:00 +32°C° 0 mm 4 mps 756 mmHg 39%
    20:00 +29°C° 0 mm 4 mps 757 mmHg 44%
    21:00 +28°C° 0 mm 4 mps 757 mmHg 46%
    22:00 +27°C° 0 mm 3 mps 758 mmHg 47%
    23:00 +27°C° 0 mm 3 mps 758 mmHg 49%

    24 December, Monday

    Time Temperature Precipitation Wind Pressure Humidity
    00:00 +26°C° 0 mm 3 mps 758 mmHg 49%
    01:00 +26°C° 0 mm 4 mps 757 mmHg 49%
    02:00 +26°C° 0 mm 4 mps 757 mmHg 49%
    03:00 +25°C° 0 mm 4 mps 757 mmHg 48%
    04:00 +25°C° 0 mm 4 mps 757 mmHg 48%
    05:00 +23°C° 0 mm 4 mps 758 mmHg 47%
    06:00 +26°C° 0 mm 4 mps 758 mmHg 42%
    07:00 +27°C° 0 mm 4 mps 759 mmHg 38%
    08:00 +29°C° 0 mm 4 mps 759 mmHg 33%
    09:00 +32°C° 0 mm 4 mps 759 mmHg 30%
    10:00 +35°C° 0 mm 3 mps 758 mmHg 27%
    11:00 +38°C° 0 mm 3 mps 758 mmHg 24%
    12:00 +38°C° 0 mm 4 mps 758 mmHg 23%
    13:00 +40°C° 0 mm 5 mps 757 mmHg 23%
    14:00 +41°C° 0 mm 5 mps 757 mmHg 22%
    15:00 +40°C° 0 mm 6 mps 756 mmHg 24%
    16:00 +38°C° 0 mm 6 mps 756 mmHg 25%
    17:00 +36°C° 0 mm 6 mps 756 mmHg 26%
    18:00 +34°C° 0 mm 6 mps 756 mmHg 29%
    19:00 +32°C° 0 mm 5 mps 756 mmHg 33%
    20:00 +29°C° 0 mm 5 mps 757 mmHg 36%
    21:00 +29°C° 0 mm 5 mps 757 mmHg 37%
    22:00 +29°C° 0 mm 5 mps 757 mmHg 38%
    23:00 +28°C° 0 mm 5 mps 757 mmHg 39%
    Show more